Miscellaneous Local Product
Issued by NWS North Platte, NE

Home | Current Version | Previous Version | Text Only | Print | Product List | Glossary On
Versions: 1 2 3 4 5 6 7 8 9 10 11 12 13 14 15 16 17 18 19 20 21 22 23 24 25 26 27 28 29 30 31 32 33 34 35 36 37 38 39 40 41 42 43 44 45 46 47 48 49 50
000
AXUS43 KLBF 161910
MISLBF


WESTERN AND NORTH CENTRAL NEBRASKA HOURLY WEATHER ROUNDUP
NATIONAL WEATHER SERVICE NORTH PLATTE NE
100 PM CST MON JAN 16 2017

NOTE: "FAIR" INDICATES FEW OR NO CLOUDS BELOW 12,000 FEET WITH NO
SIGNIFICANT WEATHER AND/OR OBSTRUCTIONS TO VISIBILITY.

NOTE: STATIONS NOT REPORTING VARIABLES SUCH AS SKY/WEATHER OR
PRESSURE ARE PROVIDED BY RAWS AND APRS NETWORKS AND ARE NOT UNDER
NATIONAL WEATHER SERVICE QUALITY CONTROL.

...OBSERVATIONS IN AND NEAR THE EASTERN PANHANDLE OF NEBRASKA...

CITY           SKY/WX    TMP DP  RH WIND       PRES   REMARKS
PINE RIDGE     CLOUDY    28  18  66 W6        30.09F WCI  22
CHADRON        SUNNY     30  16  56 NW15      30.10F WCI  19
ALLIANCE       CLOUDY    37  17  44 N17       30.04F WCI  27
SIDNEY         CLOUDY    34  19  54 N22       30.04F WCI  22
CRESCENT LAKE    N/A     50  20  30 N13G23      N/A
$$

...OBSERVATIONS IN NORTHERN NEBRASKA AND FAR SOUTHERN SOUTH DAKOTA...

CITY           SKY/WX    TMP DP  RH WIND       PRES   REMARKS
WINNER         FAIR      29  17  61 NW16      30.05F WCI  17
VALENTINE      CLOUDY    33  13  43 NW15      30.03F WCI  23
THEDFORD       CLOUDY    35  32  89 N8        29.99F WCI  28
AINSWORTH      CLOUDY    33  28  80 N10       30.01S WCI  25
O`NEILL        MIX PCPN  30  28  92 N9        30.01S WCI  21
ORD            LGT RAIN  32  29  88 N16       29.96F FOG     WCI  21
BROKEN BOW     LGT RAIN  33  30  88 N24       29.95F FOG     WCI  20
VALENTINE NWR    N/A     33  24  70 N10         N/A  WCI  25
BUTTE            N/A     28  21  74 NE7         N/A  WCI  21
HALSEY           N/A     31  29  90 NW7G14      N/A  WCI  24
SARGENT          N/A     32  23  69 NW3         N/A
CHAMBERS         N/A     30  28  90 S5          N/A  WCI  25
EWING            N/A     30  29  95 N3          N/A
$$

...OBSERVATIONS IN SOUTHWEST NEBRASKA AND FAR NORTHEAST COLORADO...

CITY           SKY/WX    TMP DP  RH WIND       PRES   REMARKS
WRAY           LGT SNOW  34  34 100 N22       29.99S WCI  22
HOLYOKE        FAIR      37  32  81 N18       30.01S WCI  27
IMPERIAL       LGT SNOW  33  30  88 N22       29.97S FOG     WCI  21
OGALLALA       CLOUDY    36  31  82 N7        30.00F WCI  31
NORTH PLATTE   CLOUDY    34  30  85 NW10      29.97S WCI  26
MCCOOK         CLOUDY    34  33  96 N8        29.94F FOG     WCI  27
LEXINGTON      DRIZZLE   33  32  94 N10       29.93F WCI  25
STAPLETON        N/A     32  29  90 CALM        N/A
GOTHENBURG       N/A     33  31  94 N9          N/A  WCI  25
CALLAWAY         N/A     31  30  96 CALM        N/A
$$

...OBSERVATIONS IN CENTRAL LINCOLN COUNTY AREA...

CITY           SKY/WX    TMP DP  RH WIND       PRES   REMARKS
N.P. AIRPORT   CLOUDY    34  30  85 NW10      29.97S WCI  26
N.P. DOWNTOWN    N/A     32  28  84 NW5G12      N/A  WCI  27
N.P. SOUTHEAST   N/A     33  30  90 N5          N/A  WCI  28
N.P. HILLCREST   N/A     33  30  90 N10         N/A  WCI  25
$$

...SOME OBSERVATIONS FROM AROUND THE REGION...

CITY           SKY/WX    TMP DP  RH WIND       PRES   REMARKS
LARAMIE        CLOUDY    23  17  78 NE5       30.07F WCI  17
CHEYENNE       CLOUDY    33   3  28 N17G24    30.06F WCI  22
DENVER         CLOUDY    31  27  85 NW14      30.08F WCI  21
AKRON          LGT SNOW  32  25  75 N22G30    30.03R WCI  19
SCOTTSBLUFF    CLOUDY    38  18  44 MISG      30.08F
RAPID CITY     SUNNY     34  19  54 N12       30.06F WCI  25
BISMARCK       CLOUDY    23  11  60 NW7       30.07F WCI  15
PIERRE         CLOUDY    16   9  74 W8        30.07F WCI   5
SIOUX FALLS    CLOUDY    30  23  75 N7        30.01F WCI  23
OMAHA          LGT RAIN  34  30  85 N8        29.91F FOG     WCI  27
GRAND ISLAND   FRZ RAIN N/A N/A N/A N7        29.91F FOG
KANSAS CITY    FOG       45  44  97 E6        29.84F VSB 1/2
WICHITA        LGT RAIN  39  37  92 SW15      29.85F WCI  31
OKLAHOMA CITY  PTSUNNY   47  38  71 SW17      29.93F
DALLAS         MOSUNNY   62  49  62 NW7       29.98F
AMARILLO       PTSUNNY   37  34  87 NW15      29.97S WCI  28
DODGE CITY     MIX PCPN  32  31  96 NW10      29.89F FOG     WCI  24
HAYS           CLOUDY    33  31  92 N12       29.88F WCI  24
GOODLAND       CLOUDY    33  32  96 N14       29.93S FOG     WCI  23
$$




USA.gov is the U.S. government's official web portal to all federal, state and local government web resources and services.